Location: Fort Worth, Tx
(32.7431°N, 97.3695°W)
Time: 16:57:27
(UTC-04:00)

Transit 4A - Pass Details

Date: 07 March 2024
Orbit: 871 x 972 km, 66.8° (Epoch: 21 April)

Event Time Altitude Azimuth Distance (km) Brightness Sun altitude
Rises 09:23:55 0° 336° (NNW) 3,470 10.5 18.6°
Reaches altitude 10° 09:26:25 10° 338° (NNW) 2,524 9.9 19.1°
Maximum altitude 09:32:14 74° 64° (ENE) 907 8.4 20.3°
Drops below altitude 10° 09:38:02 10° 149° (SSE) 2,518 11.1 21.4°
Sets 09:40:31 0° 151° (SSE) 3,461 11.7 21.9°
